Weather History for KMPV - June, 2013

Change the Weather History Date:

Thursday, June 6, 2013

  Actual Average Record
Temperature  
Mean Temperature 57 °F 60 °F  
Max Temperature 68 °F 72 °F 85 °F (1995)
Min Temperature 46 °F 49 °F 30 °F (1964)
Degree Days  
Heating Degree Days 8    
Cooling Degree Days 0 1  
Month to date cooling degree days 15 6  
Year to date cooling degree days 26 16  
Since 1 June cooling degree days 15 6  
Growing Degree Days 7 (Base 50)    
Moisture  
Dew Point 47 °F    
Average Humidity 68    
Maximum Humidity 93    
Minimum Humidity 42    
Precipitation  
Precipitation 0.11 in 0.13 in 0.95 in (1989)
Month to date precipitation 0.71 0.76  
Year to date precipitation 9.98 13.67  
Sea Level Pressure  
Sea Level Pressure 30.18 in    
Wind  
Wind Speed 2 mph (NNW)    
Max Wind Speed 12 mph    
Max Gust Speed 15 mph    
Visibility 10 miles    
Events Rain    
T = Trace of Precipitation, MM = Missing Value Source: NWS Daily Summary

Daily Weather History Graph

Daily Weather History Graph

Search for Another Location

Airport or City:

Trip Planner

Search our weather history database for the weather conditions in past years. The results will help you decide how hot, cold, wet, or windy it might be!

Date:

Astronomy

Jun. 06, 2013 Rise Set
Actual Time 5:07 AM EDT 8:30 PM EDT
Civil Twilight 4:31 AM EDT 9:06 PM EDT
Nautical Twilight 3:44 AM EDT 9:54 PM EDT
Astronomical Twilight 2:45 AM EDT 10:53 PM EDT
Moon 3:51 AM EDT (6/6) 6:46 PM EDT (6/6)
Length of Visible Light 16h 35m
Length of Day
15h 23m
Waning Crescent, 4% of the Moon is Illuminated
Jun 6
Waning Crescent
Jun 8
New
Jun 16
First Quarter
Jun 23
Full
Jun 30
Last Quarter

Hourly Weather History & Observations

Time (EDT) Temp. Dew Point Humidity Pressure Visibility Wind Dir Wind Speed Gust Speed Precip Events Conditions
12:51 AM 52.0 °F 43.0 °F 71% 30.21 in 10.0 mi Calm Calm - N/A   Overcast
1:51 AM 51.1 °F 44.1 °F 77% 30.22 in 10.0 mi Calm Calm - N/A   Overcast
2:51 AM 50.0 °F 43.0 °F 77% 30.23 in 10.0 mi Calm Calm - N/A   Overcast
3:51 AM 46.9 °F 43.0 °F 86% 30.22 in 10.0 mi Calm Calm - N/A   Scattered Clouds
4:51 AM 48.0 °F 43.0 °F 83% 30.22 in 10.0 mi Calm Calm - N/A   Clear
5:51 AM 48.9 °F 45.0 °F 86% 30.24 in 10.0 mi Calm Calm - N/A   Overcast
6:51 AM 50.0 °F 45.0 °F 83% 30.24 in 10.0 mi SSE 3.5 mph - N/A   Partly Cloudy
7:51 AM 51.1 °F 46.0 °F 83% 30.25 in 10.0 mi Calm Calm - N/A   Clear
8:51 AM 55.0 °F 44.1 °F 67% 30.25 in 10.0 mi Calm Calm - N/A   Overcast
9:51 AM 59.0 °F 44.1 °F 58% 30.21 in 10.0 mi SE 3.5 mph - N/A   Mostly Cloudy
10:51 AM 63.0 °F 45.0 °F 52% 30.20 in 10.0 mi Variable 3.5 mph - N/A   Mostly Cloudy
11:51 AM 64.0 °F 44.1 °F 48% 30.20 in 10.0 mi Calm Calm - N/A   Overcast
12:51 PM 66.0 °F 44.1 °F 45% 30.17 in 10.0 mi Calm Calm - N/A   Overcast
1:51 PM 68.0 °F 44.1 °F 42% 30.16 in 10.0 mi East 3.5 mph - N/A   Overcast
2:51 PM 64.9 °F 48.0 °F 54% 30.14 in 10.0 mi NNW 8.1 mph - N/A   Overcast
3:51 PM 61.0 °F 48.9 °F 64% 30.15 in 10.0 mi WNW 5.8 mph - N/A   Overcast
4:51 PM 57.9 °F 50.0 °F 75% 30.16 in 10.0 mi NNW 6.9 mph - 0.00 in Rain Light Rain
5:51 PM 55.9 °F 50.0 °F 80% 30.16 in 10.0 mi NW 8.1 mph - 0.00 in   Overcast
6:51 PM 55.0 °F 51.1 °F 86% 30.16 in 10.0 mi NW 4.6 mph - N/A   Overcast
7:51 PM 54.0 °F 51.1 °F 90% 30.15 in 10.0 mi Calm Calm - 0.00 in   Overcast
8:51 PM 54.0 °F 51.1 °F 90% 30.14 in 10.0 mi Calm Calm - N/A   Overcast
9:49 PM 53.6 °F 51.8 °F 94% 30.13 in 5.0 mi Calm Calm - 0.01 in Rain Light Rain
9:51 PM 53.1 °F 51.1 °F 93% 30.14 in 6.0 mi Calm Calm - 0.02 in Rain Light Rain
10:10 PM 53.6 °F 51.8 °F 94% 30.13 in 10.0 mi Calm Calm - 0.00 in Rain Light Rain
10:51 PM 53.1 °F 52.0 °F 96% 30.14 in 7.0 mi Calm Calm - 0.03 in Rain Light Rain
11:51 PM 55.0 °F 53.1 °F 93% 30.14 in 10.0 mi South 4.6 mph - 0.03 in Rain Light Rain